DW7898 Weather Reports


Display with metric or nautical units.
time (UTC)temp
F
wind
direction
speed
MPH
gust
MPH
rain 1hr
in
rain 24hr
in
rain mn
in
humidity
%
barometer
mb
20260504034337 60 29 0.0 3.0 0.00 0.03 0.00 93 1014.1
20260504033345 60 29 1.0 3.0 0.00 0.03 0.00 93 1014.1
20260504032347 60 27 0.0 0.0 0.00 0.03 0.00 93 1014.3
20260504031354 60 27 0.0 0.0 0.00 0.03 0.00 93 1014.5
20260504030339 60 27 0.0 0.0 0.00 0.03 0.00 93 1014.5
20260504025342 60 27 0.0 0.0 0.00 0.03 0.00 93 1014.4
20260504024343 60 27 0.0 0.0 0.00 0.03 0.00 93 1014.3
20260504023347 60 27 0.0 0.0 0.00 0.03 0.00 93 1014.1
20260504022341 60 27 0.0 0.0 0.00 0.03 0.00 92 1014.2
20260504021347 60 27 0.0 0.0 0.00 0.03 0.00 92 1014.3
20260504020349 60 27 0.0 0.0 0.00 0.03 0.00 92 1014.3
20260504015350 60 27 0.0 0.0 0.00 0.03 0.00 93 1014.3
20260504014353 60 27 0.0 0.0 0.00 0.03 0.00 92 1014.6
20260504013354 60 27 0.0 0.0 0.00 0.03 0.00 92 1014.7
20260504012351 60 27 0.0 0.0 0.00 0.03 0.00 92 1014.7
20260504011357 60 27 0.0 0.0 0.00 0.03 0.00 92 1014.8
20260504010338 60 27 0.0 0.0 0.00 0.03 0.00 92 1014.8
20260504005356 60 27 0.0 0.0 0.00 0.03 0.00 92 1015.0
20260504004355 60 27 0.0 0.0 0.00 0.03 0.00 92 1015.1
20260504003337 60 27 0.0 0.0 0.00 0.03 0.00 92 1015.2
20260504002337 59 27 0.0 2.0 0.00 0.03 0.00 92 1015.3
20260504001337 59 27 1.0 4.0 0.00 0.03 0.00 91 1015.2
20260504000336 60 31 0.0 0.0 0.00 0.03 0.00 92 1015.2
20260503235356 60 34 0.0 0.0 0.00 0.03 0.00 92 1015.1
20260503234338 60 34 0.0 0.0 0.00 0.03 0.00 92 1015.4
20260503233341 60 34 0.0 0.0 0.00 0.03 0.00 91 1015.5
20260503232354 59 34 0.0 2.0 0.00 0.03 0.00 91 1015.4
20260503231353 59 34 1.0 3.0 0.00 0.03 0.00 91 1015.4
20260503230339 60 34 1.0 2.0 0.00 0.03 0.00 91 1015.5
20260503225358 59 34 2.0 4.0 0.00 0.03 0.00 90 1015.5
20260503224358 60 32 3.0 4.0 0.00 0.03 0.00 90 1015.5
20260503223358 59 26 2.0 4.0 0.00 0.03 0.00 89 1015.6
20260503222354 59 33 2.0 5.0 0.00 0.03 0.00 89 1015.7
20260503221339 59 11 3.0 7.0 0.00 0.03 0.00 89 1015.8
20260503220343 59 26 3.0 7.0 0.00 0.03 0.00 90 1015.6
20260503215343 60 33 4.0 7.0 0.00 0.03 0.03 90 1015.7
20260503214350 60 24 3.0 5.0 0.00 0.03 0.03 89 1015.9
20260503213356 60 38 3.0 6.0 0.00 0.03 0.03 89 1015.8
20260503212351 60 39 2.0 5.0 0.02 0.03 0.03 87 1015.9
20260503211351 60 34 1.0 4.0 0.02 0.03 0.03 87 1015.9
20260503210355 60 35 2.0 7.0 0.02 0.03 0.03 86 1016.0
20260503205357 60 51 2.0 5.0 0.02 0.03 0.02 85 1015.9
20260503204355 60 23 3.0 5.0 0.02 0.03 0.02 83 1016.0
20260503203359 60 101 0.0 4.0 0.02 0.03 0.02 82 1016.2
20260503202356 61 99 3.0 6.0 0.01 0.02 0.01 81 1016.2
20260503201357 62 48 0.0 2.0 0.00 0.01 0.01 80 1016.0
20260503200341 62 48 1.0 3.0 0.00 0.01 0.01 80 1015.8
20260503195358 62 48 0.0 2.0 0.00 0.01 0.01 79 1016.0
20260503194341 62 48 1.0 3.0 0.00 0.01 0.01 79 1015.8
20260503193340 62 47 0.0 4.0 0.00 0.01 0.01 79 1015.6
20260503192357 62 46 2.0 4.0 0.01 0.01 0.01 78 1015.5
20260503191358 62 45 1.0 5.0 0.01 0.01 0.01 77 1015.3
20260503190340 62 49 4.0 5.0 0.01 0.01 0.01 76 1015.2
20260503185342 62 85 2.0 5.0 0.01 0.01 0.01 76 1015.5
20260503184347 62 82 1.0 4.0 0.01 0.01 0.01 76 1015.6
20260503183352 62 81 1.0 4.0 0.01 0.01 0.01 75 1015.5
20260503182344 63 77 1.0 6.0 0.00 0.00 0.00 73 1015.4
20260503181350 63 58 2.0 4.0 0.00 0.00 0.00 72 1015.4
20260503180355 63 58 3.0 6.0 0.00 0.00 0.00 71 1015.3
20260503175354 63 111 3.0 6.0 0.00 0.00 0.00 70 1015.3
20260503174338 63 63 3.0 9.0 0.00 0.00 0.00 70 1015.2
20260503173341 64 79 3.0 6.0 0.00 0.00 0.00 70 1015.0
20260503172358 64 62 3.0 7.0 0.00 0.00 0.00 69 1015.0
20260503171339 64 55 4.0 7.0 0.00 0.00 0.00 68 1015.0
20260503170342 64 84 1.0 7.0 0.00 0.00 0.00 67 1015.1
20260503150351 66 141 4.0 9.0 0.00 0.00 0.00 66 1015.2
20260503131356 66 203 2.0 10.0 0.00 0.00 0.00 65 1016.8
20260503130339 66 113 6.0 11.0 0.00 0.00 0.00 63 1017.0
20260503110339 66 158 3.0 7.0 0.00 0.00 0.00 64 1017.9
20260503090346 65 109 3.0 7.0 0.00 0.00 0.00 64 1018.1
20260503081353 65 195 1.0 6.0 0.00 0.00 0.00 67 1017.8
20260503080337 65 58 2.0 6.0 0.00 0.00 0.00 68 1017.8
20260503072355 64 164 1.0 4.0 0.00 0.00 0.00 72 1017.9
20260503071341 63 122 2.0 8.0 0.00 0.00 0.00 73 1018.1
20260503070345 63 49 1.0 6.0 0.00 0.00 0.00 75 1017.9
20260503060341 62 42 3.0 5.0 0.00 0.00 0.00 79 1017.9
20260503054342 62 44 2.0 3.0 0.00 0.00 0.00 79 1018.0
20260503053346 62 45 1.0 3.0 0.00 0.00 0.00 79 1018.1
20260503052345 62 44 1.0 4.0 0.00 0.00 0.00 80 1018.0
20260503051352 62 45 2.0 4.0 0.00 0.00 0.00 79 1018.0
20260503050356 62 44 2.0 3.0 0.00 0.00 0.00 79 1017.9
20260503045351 62 44 1.0 2.0 0.00 0.00 0.00 79 1017.9
20260503044358 62 44 1.0 3.0 0.00 0.00 0.00 79 1018.0
20260503043341 62 44 1.0 4.0 0.00 0.00 0.00 79 1017.9
20260503042339 62 44 1.0 3.0 0.00 0.00 0.00 79 1017.9
20260503041339 62 44 1.0 4.0 0.00 0.00 0.00 79 1018.0
20260503040343 62 43 3.0 5.0 0.00 0.00 0.00 79 1017.9
20260503035359 62 65 2.0 5.0 0.00 0.00 0.00 79 1018.1